Satellite-Ground Cal/Val Region Overpasses Predictions

Prediction of Satellite NPP Overpassing Cal/Val Region: PacNW

Region Location: (Latitude: 10.00, Longitude: 139.50) to (Latitude: 22.70, Longitude: 165.60).

Table of predicted overpasses for the next 14.0 days since TLE Epoch: 9/24/2022
Interval Starting Time Starting Location Ending Time Ending Location
1 09/24/2022 14:30:48 ( 12.23, 165.59) 09/24/2022 14:31:25 ( 10.06, 165.09)
2 09/24/2022 16:09:20 ( 22.67, 142.72) 09/24/2022 16:12:55 ( 10.05, 139.71)
3 09/25/2022 03:18:25 ( 10.00, 150.24) 09/25/2022 03:22:01 ( 22.68, 147.22)
4 09/25/2022 15:50:19 ( 22.66, 147.47) 09/25/2022 15:53:54 ( 10.04, 144.47)
5 09/26/2022 02:59:24 ( 10.01, 155.00) 09/26/2022 03:03:00 ( 22.69, 151.98)
6 09/26/2022 15:31:17 ( 22.65, 152.23) 09/26/2022 15:34:52 ( 10.03, 149.22)
7 09/27/2022 02:40:22 ( 10.02, 159.75) 09/27/2022 02:43:57 ( 22.65, 156.75)
8 09/27/2022 15:12:15 ( 22.70, 157.00) 09/27/2022 15:15:51 ( 10.02, 153.98)
9 09/28/2022 02:21:21 ( 10.04, 164.51) 09/28/2022 02:24:56 ( 22.66, 161.50)
10 09/28/2022 14:53:13 ( 22.69, 161.75) 09/28/2022 14:56:49 ( 10.01, 158.73)
11 09/29/2022 03:43:49 ( 10.05, 143.88) 09/29/2022 03:47:24 ( 22.68, 140.88)
12 09/29/2022 14:35:15 ( 18.98, 165.59) 09/29/2022 14:37:47 ( 10.05, 163.50)
13 09/29/2022 16:15:42 ( 22.67, 141.13) 09/29/2022 16:17:36 ( 15.98, 139.50)
14 09/30/2022 03:24:47 ( 10.01, 148.65) 09/30/2022 03:28:23 ( 22.69, 145.63)
15 09/30/2022 15:56:41 ( 22.65, 145.88) 09/30/2022 16:00:16 ( 10.03, 142.88)
16 10/01/2022 03:05:45 ( 10.02, 153.41) 10/01/2022 03:09:20 ( 22.65, 150.40)
17 10/01/2022 15:37:38 ( 22.70, 150.65) 10/01/2022 15:41:14 ( 10.02, 147.63)
18 10/02/2022 02:46:44 ( 10.04, 158.16) 10/02/2022 02:50:19 ( 22.66, 155.16)
19 10/02/2022 15:18:37 ( 22.68, 155.41) 10/02/2022 15:22:13 ( 10.01, 152.39)
20 10/03/2022 02:27:42 ( 10.06, 162.92) 10/03/2022 02:31:17 ( 22.68, 159.91)
21 10/03/2022 14:59:35 ( 22.67, 160.16) 10/03/2022 15:03:10 ( 10.05, 157.16)
22 10/04/2022 02:11:12 ( 18.94, 165.59) 10/04/2022 02:12:16 ( 22.70, 164.66)
23 10/04/2022 03:50:10 ( 10.02, 142.31) 10/04/2022 03:53:31 ( 21.82, 139.51)
24 10/04/2022 14:40:34 ( 22.65, 164.91) 10/04/2022 14:44:09 ( 10.03, 161.91)
25 10/04/2022 16:22:04 ( 22.65, 139.54) 10/04/2022 16:22:06 ( 22.53, 139.51)
26 10/05/2022 03:31:08 ( 10.04, 147.06) 10/05/2022 03:34:43 ( 22.66, 144.06)
27 10/05/2022 16:03:01 ( 22.69, 144.31) 10/05/2022 16:06:37 ( 10.01, 141.29)
28 10/06/2022 03:12:07 ( 10.06, 151.82) 10/06/2022 03:15:42 ( 22.68, 148.81)
29 10/06/2022 15:44:00 ( 22.67, 149.06) 10/06/2022 15:47:35 ( 10.05, 146.06)
30 10/07/2022 02:53:05 ( 10.02, 156.58) 10/07/2022 02:56:41 ( 22.70, 153.56)
31 10/07/2022 15:24:58 ( 22.65, 153.81) 10/07/2022 15:28:33 ( 10.03, 150.81)
